{"data":{"norad_id":59244,"epoch":"2026-09-20T23:04:10.941600Z","epoch_age_seconds":118865,"freshness":"FRESH","line1":"1 59244U 24049P   26263.96123775 -.00000049  00000+0  77566-5 0  9991","line2":"2 59244  42.9983 120.4587 0001154 271.2766  88.7954 15.27578008142269","mean_motion":15.27578008,"eccentricity":0.0001154,"inclination_deg":42.9983,"raan_deg":120.4587,"arg_perigee_deg":271.2766,"mean_anomaly_deg":88.7954,"bstar":7.7566e-6,"rev_number":14226,"period_min":94.266871639854,"perigee_km":482.26327924693,"apogee_km":483.84684237457,"semimajor_km":6861.1920608108,"source":"CELESTRAK","updated_at":"2026-09-21T09:00:34.077175Z"}}